Weather in San José de Ocoa

Dominican Republic     18°32′44″N   70°30′03″W
temp.,
°C
wind,
m/s
gust,
m/s
humid.,
%
clouds,
%
prec.,
mm/h
press.,
hPa
HPBL,
m
17 september, fri
fri1723:00+21nne2284100 0.1 102040
02:00+20nne2284100 0.1 101940
05:00+20nne3385100 0.0 101852
08:00+23ne2379100 0.0 1019185
11:00+28ene254818 0.0 10191481
14:00+30ene46438 0.0 10162070
17:00+28ene365495 0.1 10151298
20:00+22ne34849 0.2 101893
18 september, sat
sat1823:00+21nne348710 0.0 1019102
02:00+20nne33876 0.0 101777
05:00+20nne33841 0.0 101660
08:00+23ne23704 0.0 1017205
11:00+28ese144916 0.0 10171483
14:00+30se144737 0.0 10141795
17:00+28ne245719 0.4 10131147
20:00+22nne348599 0.6 101596
19 september, sun
sun1923:00+20nne348815 0.0 1016130
02:00+19nne34883 0.0 101582
05:00+18nne34605 0.0 101556
08:00+22nne236314 0.0 1015138
11:00+28se134867 0.0 10151341
14:00+29s134961 0.0 10131488
17:00+26se246561 0.5 1012335
20:00+21nne22867 0.8 101464
20 september, mon
mon2023:00+20nne349213 0.0 1016105
02:00+19nne34906 0.0 101579
05:00+19nne33860 0.0 101457
08:00+22nne23689 0.0 1015164
11:00+28sse134334 0.0 10151340
14:00+29s244726 0.0 10131736
17:00+27se235938 0.2 1013685
20:00+21nne22892 0.4 101563
21 september, tue
tue2123:00+21nne34906 0.0 101691
02:00+20nne348653 0.0 101576
05:00+20nne3380100 0.0 101463
08:00+23nne23685 0.0 1015168
11:00+29ese14445 0.0 10151277
14:00+30ese14444 0.0 10131621
17:00+28ne14560 0.1 10121071
20:00+22nne23839 0.2 101484